Find Starlink 5452

NORAD ID: 54772 Int'l Des: 2022-175 Owner: SPXS Country: US Constellation: starlink operational
LEOCIRCULAR

当前视图

正在加载3D地球...

About Starlink 5452

Starlink 5452 (NORAD 54772) is a starlink constellation satellite (v1.5) launched Dec 17, 2022 by SPXS of US. It operates in LEO, CIRCULAR orbit with a mass of 305.00 kg.

即将过境

Passes for default location (London). Set your location on the main map for personalized predictions.

高度历史

Loading altitude history...

两行轨道根数

1 54772U 22175Q 26265.54695416 .00001321 00000-0 50249-4 0 9994
2 54772 53.1598 210.3132 0001281 93.3364 266.7785 15.34394302210053
Epoch: Sep 22, 2026 • Age: 16 hours

当前状态

高度 467.6 km
远地点 / 近地点 N/A
速度 7.64 km/s
星下点 49.79°N, 115.1°W
发射日期 Dec 17, 2022
运行时间 3.7 years
类型 internet

技术详情

分类 Payload
质量 305.00 kg
干质量 290.00 kg
长度 0.20 m
跨度 9.00 m
形状 ? Box + pan
制造商 SPXS
平台类型 Starlink
阶段状态 In Orbit
所有者/国家 SPXS/US

Most Searched